TimeEST,TemperatureF,Dew PointF,Humidity,Sea Level PressureIn,VisibilityMPH,Wind Direction,Wind SpeedMPH,Gust SpeedMPH,PrecipitationIn,Events,Conditions,WindDirDegrees,DateUTC
12:54 AM,21.0,7.0,55,30.12,10.0,NW,16.1,26.5,N/A,,Mostly Cloudy,320,2009-01-01 05:54:00
1:54 AM,21.0,8.1,57,30.14,10.0,NNW,13.8,26.5,N/A,,Mostly Cloudy,330,2009-01-01 06:54:00
2:54 AM,19.0,3.0,50,30.18,10.0,NW,15.0,26.5,N/A,,Clear,320,2009-01-01 07:54:00
3:54 AM,18.0,-0.0,45,30.22,10.0,NW,20.7,32.2,N/A,,Clear,320,2009-01-01 08:54:00
4:54 AM,17.1,-0.9,45,30.25,10.0,WNW,16.1,24.2,N/A,,Clear,300,2009-01-01 09:54:00
5:54 AM,16.0,-2.0,45,30.29,10.0,WNW,9.2,-,N/A,,Clear,300,2009-01-01 10:54:00
6:54 AM,16.0,-0.9,47,30.31,10.0,NNW,18.4,24.2,N/A,,Clear,330,2009-01-01 11:54:00
7:54 AM,16.0,-0.9,47,30.35,10.0,NW,8.1,18.4,N/A,,Clear,320,2009-01-01 12:54:00
8:54 AM,17.1,-0.0,47,30.37,10.0,NNW,9.2,-,N/A,,Clear,340,2009-01-01 13:54:00
9:54 AM,19.9,-0.0,42,30.39,10.0,NW,19.6,-,N/A,,Clear,310,2009-01-01 14:54:00
10:54 AM,21.0,-0.0,40,30.39,10.0,Variable,4.6,-,N/A,,Clear,0,2009-01-01 15:54:00
11:54 AM,24.1,-0.0,35,30.35,10.0,WNW,12.7,-,N/A,,Clear,300,2009-01-01 16:54:00
12:54 PM,26.1,1.0,34,30.34,10.0,West,11.5,-,N/A,,Clear,280,2009-01-01 17:54:00
1:54 PM,28.0,1.0,31,30.32,10.0,NW,13.8,-,N/A,,Clear,310,2009-01-01 18:54:00
2:54 PM,28.0,-0.0,30,30.32,10.0,West,10.4,-,N/A,,Clear,280,2009-01-01 19:54:00
3:54 PM,27.0,-0.0,31,30.32,10.0,NW,10.4,-,N/A,,Clear,320,2009-01-01 20:54:00
4:54 PM,25.0,1.0,36,30.32,10.0,WNW,5.8,-,N/A,,Clear,300,2009-01-01 21:54:00
5:54 PM,24.1,1.0,37,30.32,10.0,Calm,Calm,-,N/A,,Clear,0,2009-01-01 22:54:00
6:54 PM,23.0,1.9,40,30.30,10.0,Calm,Calm,-,N/A,,Clear,0,2009-01-01 23:54:00
7:54 PM,21.0,7.0,55,30.30,10.0,Calm,Calm,-,N/A,,Clear,0,2009-01-02 00:54:00
8:54 PM,19.9,8.1,60,30.27,10.0,SW,4.6,-,N/A,,Clear,220,2009-01-02 01:54:00
9:54 PM,19.9,7.0,57,30.25,10.0,SSW,3.5,-,N/A,,Clear,210,2009-01-02 02:54:00
10:54 PM,19.9,10.9,68,30.21,10.0,Calm,Calm,-,N/A,,Partly Cloudy,0,2009-01-02 03:54:00
11:54 PM,24.1,7.0,48,30.19,10.0,Calm,Calm,-,N/A,,Clear,0,2009-01-02 04:54:00